Погода в Обнинске

Россия / Калужская область     55°06′43″N   36°35′11″E
темп.,
°C
ветер,
м/с
пор.,
м/с
влажн.,
%
обл.,
%
осадки,
мм/ч
давл.,
гПа
погр.,
м
8 мая, сб
сб800:00+7ююв31176100 0.0 1011251
03:00+8ююв41383100 0.6 1010634
06:00+8ююв51294100 4.1 10081171
09:00+8юв51296100 12.6 1006980
12:00+8ююв3997100 6.6 1004630
15:00+9ююв3998100 11.8 1002682
18:00+8сз2499100 6.6 1000265
21:00+7сз3898100 8.7 1001510
9 мая, вс
вс900:00+5сз61296100 2.3 1004919
03:00+4сз61389100 4.8 1007966
06:00+3зсз51290100 0.1 1011915
09:00+4сз61084100 0.2 10131090
12:00+6сз6970100 0.1 10161281
15:00+10сз5956100 0.1 10181997
18:00+10сз48567 0.0 10201574
21:00+5зсз22775 0.1 102335
10 мая, пн
пн1000:00+3сз25823 0.0 102583
03:00+2ссз22780 0.0 102724
06:00+3ссз11733 0.0 102940
09:00+10ссз11515 0.0 1030425
12:00+14сз23425 0.0 10301443
15:00+15ссз12393 0.0 10291728
18:00+15св12503 0.0 10291196
21:00+8в11680 0.0 103010
11 мая, вт
вт1100:00+6в11750 0.0 103110
03:00+5св11740 0.0 103111
06:00+6всв24764 0.0 1031109
09:00+12всв47545 0.0 1031658
12:00+16всв57410 0.0 10301168
15:00+17в46410 0.0 10281271
18:00+16в37550 0.0 1028719
21:00+10всв227676 0.0 102826
12 мая, ср
ср1200:00+8всв28865 0.0 1027146
03:00+8всв311885 0.0 1026248
06:00+8всв3108892 0.0 1026290
09:00+12в41081100 0.0 1025503
12:00+14в4118194 0.0 10241012
15:00+16вюв5117961 0.1 10231156
18:00+15в41183100 0.1 1023847
21:00+12всв3119894 1.5 1022542